Overview Statistics Trail Chart Weather Telemetry Raw packets
 

This is the latest recevied weather packets stored in our database for station/object DB0KE-10. If no packets are shown the sender has not sent any weather packets the latest 10 day(s).

<< 6 7 8 9 10 11 >>
Time Temp. Humidity Pressure Rain* Wind** Luminosity Snow
1787921903 27.22° C 45% 1022.4 hPa - - - -
1787921005 26.67° C 45% 1022.5 hPa - - - -
1787920105 26.67° C 45% 1023 hPa - - - -
1787919205 26.67° C 46% 1023.2 hPa - - - -
1787918305 27.22° C 45% 1022.9 hPa - - - -
1787917405 27.22° C 45% 1022.3 hPa - - - -
1787916505 27.78° C 46% 1021.9 hPa - - - -
1787915605 27.78° C 47% 1021.9 hPa - - - -
1787914705 27.78° C 47% 1022.2 hPa - - - -
1787913805 27.22° C 48% 1021.9 hPa - - - -
1787912905 27.22° C 47% 1021.9 hPa - - - -
1787912005 27.22° C 48% 1021.4 hPa - - - -
1787911104 27.78° C 44% 1020.6 hPa - - - -
1787910204 28.33° C 42% 1019.6 hPa - - - -
1787909304 28.33° C 41% 1019.2 hPa - - - -
1787908404 28.33° C 43% 1017.7 hPa - - - -
1787907504 27.78° C 43% 1016.9 hPa - - - -
1787906604 27.22° C 43% 1017.3 hPa - - - -
1787905704 27.78° C 44% 1016.8 hPa - - - -
1787904804 27.22° C 45% 1017.5 hPa - - - -
1787903904 27.22° C 46% 1017.9 hPa - - - -
1787903004 27.22° C 46% 1018.3 hPa - - - -
1787902104 26.67° C 47% 1018.6 hPa - - - -
1787901203 26.67° C 49% 1018.4 hPa - - - -
1787900303 26.67° C 49% 1018.4 hPa - - - -

* Rain since midnight (hover to see other rain measurements)
** Current wind speed in m/s (hover to see current wind gust speed)